Time,TemperatureF,DewpointF,PressureIn,WindDirection,WindDirectionDegrees,WindSpeedMPH,WindSpeedGustMPH,Humidity,HourlyPrecipIn,Conditions,Clouds,dailyrainin,SoftwareType,DateUTC
2013-02-13 00:00:00,47.2,40.4,29.91,SW,236,0.0,18.0,77,0.00,,---,0.00,VWS V13.01,2013-02-13 05:00:00,
2013-02-13 00:05:00,47.2,40.7,29.91,SW,236,0.0,18.0,78,0.00,,---,0.00,VWS V13.01,2013-02-13 05:05:00,
2013-02-13 00:10:00,47.2,40.4,29.91,SW,236,0.0,18.0,77,0.00,,---,0.00,VWS V13.01,2013-02-13 05:10:00,
2013-02-13 00:15:00,47.2,40.0,29.91,SW,236,0.0,18.0,76,0.00,,---,0.00,VWS V13.01,2013-02-13 05:15:00,
2013-02-13 00:20:00,47.2,41.4,29.92,SW,236,0.0,18.0,80,0.00,,---,0.00,VWS V13.01,2013-02-13 05:20:00,
2013-02-13 00:25:00,47.1,40.6,29.92,SW,236,0.0,18.0,78,0.00,,---,0.00,VWS V13.01,2013-02-13 05:25:00,
2013-02-13 00:30:00,47.1,40.6,29.92,SW,236,0.0,18.0,78,0.00,,---,0.00,VWS V13.01,2013-02-13 05:30:00,
2013-02-13 00:35:00,47.0,40.2,29.89,SW,236,0.0,18.0,77,0.00,,---,0.00,VWS V13.01,2013-02-13 05:35:00,
2013-02-13 00:40:00,46.9,40.4,29.89,SW,236,0.0,18.0,78,0.00,,---,0.00,VWS V13.01,2013-02-13 05:40:00,
2013-02-13 00:45:00,46.8,40.3,29.89,SW,236,0.0,18.0,78,0.00,,---,0.00,VWS V13.01,2013-02-13 05:45:00,
2013-02-13 00:50:00,46.7,39.9,29.87,SW,236,0.0,18.0,77,0.00,,---,0.00,VWS V13.01,2013-02-13 05:50:00,
2013-02-13 00:55:00,46.6,39.1,29.87,SW,236,0.0,18.0,75,0.00,,---,0.00,VWS V13.01,2013-02-13 05:55:00,
2013-02-13 01:00:00,46.5,40.0,29.87,SW,236,0.0,18.0,78,0.00,,---,0.00,VWS V13.01,2013-02-13 06:00:00,
2013-02-13 01:05:00,46.4,39.6,29.86,SW,236,0.0,18.0,77,0.00,,---,0.00,VWS V13.01,2013-02-13 06:05:00,
2013-02-13 01:10:00,46.4,39.6,29.86,SW,236,0.0,18.0,77,0.00,,---,0.00,VWS V13.01,2013-02-13 06:10:00,
2013-02-13 01:15:00,46.4,39.6,29.86,SW,236,0.0,18.0,77,0.00,,---,0.00,VWS V13.01,2013-02-13 06:15:00,
2013-02-13 01:20:00,46.4,39.9,29.86,SW,236,0.0,18.0,78,0.00,,---,0.00,VWS V13.01,2013-02-13 06:20:00,
2013-02-13 01:25:00,46.5,40.0,29.86,SW,236,0.0,18.0,78,0.00,,---,0.00,VWS V13.01,2013-02-13 06:25:00,
2013-02-13 01:30:00,46.5,39.7,29.86,SW,236,0.0,18.0,77,0.00,,---,0.00,VWS V13.01,2013-02-13 06:30:00,
2013-02-13 01:35:00,46.5,40.0,29.85,SW,236,0.0,18.0,78,0.00,,---,0.00,VWS V13.01,2013-02-13 06:35:00,
2013-02-13 01:40:00,46.5,39.7,29.85,SW,236,0.0,18.0,77,0.00,,---,0.00,VWS V13.01,2013-02-13 06:40:00,
2013-02-13 01:45:00,46.6,40.5,29.85,SW,236,0.0,18.0,79,0.00,,---,0.00,VWS V13.01,2013-02-13 06:45:00,
2013-02-13 01:50:00,46.5,40.3,29.84,SW,235,0.0,18.0,79,0.00,,---,0.00,VWS V13.01,2013-02-13 06:50:00,
2013-02-13 01:55:00,46.4,40.2,29.84,SW,235,0.0,18.0,79,0.00,,---,0.00,VWS V13.01,2013-02-13 06:55:00,
2013-02-13 02:00:00,46.4,40.6,29.84,SW,235,0.0,18.0,80,0.00,,---,0.00,VWS V13.01,2013-02-13 07:00:00,
2013-02-13 02:05:00,46.2,40.4,29.84,SW,235,0.0,18.0,80,0.00,,---,0.00,VWS V13.01,2013-02-13 07:05:00,
2013-02-13 02:10:00,46.1,40.9,29.84,SW,236,0.0,18.0,82,0.00,,---,0.00,VWS V13.01,2013-02-13 07:10:00,
2013-02-13 02:15:00,46.0,40.8,29.84,SW,236,0.0,18.0,82,0.00,,---,0.00,VWS V13.01,2013-02-13 07:15:00,
2013-02-13 02:20:00,45.9,40.7,29.84,SW,235,0.0,18.0,82,0.00,,---,0.00,VWS V13.01,2013-02-13 07:20:00,
2013-02-13 02:25:00,45.9,40.7,29.84,SW,235,0.0,18.0,82,0.00,,---,0.00,VWS V13.01,2013-02-13 07:25:00,
2013-02-13 02:30:00,46.0,41.1,29.84,SW,235,0.0,18.0,83,0.00,,---,0.00,VWS V13.01,2013-02-13 07:30:00,
2013-02-13 02:35:00,46.0,41.4,29.82,SW,235,0.0,18.0,84,0.00,,---,0.00,VWS V13.01,2013-02-13 07:35:00,
2013-02-13 02:40:00,46.0,41.4,29.82,SW,235,0.0,18.0,84,0.00,,---,0.00,VWS V13.01,2013-02-13 07:40:00,
2013-02-13 02:45:00,46.0,41.8,29.82,SW,235,0.0,18.0,85,0.00,,---,0.01,VWS V13.01,2013-02-13 07:45:00,
2013-02-13 02:50:00,46.0,42.0,29.86,SW,235,0.0,18.0,86,0.00,,---,0.01,VWS V13.01,2013-02-13 07:50:00,
2013-02-13 02:55:00,45.9,42.5,29.86,SW,233,0.0,18.0,88,0.00,,---,0.02,VWS V13.01,2013-02-13 07:55:00,
2013-02-13 03:00:00,45.8,42.8,29.86,SW,235,0.0,18.0,89,0.00,,---,0.02,VWS V13.01,2013-02-13 08:00:00,
2013-02-13 03:05:00,45.7,42.7,29.85,SW,235,0.0,18.0,89,0.00,,---,0.03,VWS V13.01,2013-02-13 08:05:00,
2013-02-13 03:10:00,45.5,42.7,29.85,SSE,153,0.0,18.0,90,0.00,,---,0.05,VWS V13.01,2013-02-13 08:10:00,
2013-02-13 03:15:00,45.3,42.8,29.85,SSE,156,0.0,18.0,91,0.00,,---,0.06,VWS V13.01,2013-02-13 08:15:00,
2013-02-13 03:20:00,45.2,43.0,29.83,SSE,155,0.0,18.0,92,0.00,,---,0.06,VWS V13.01,2013-02-13 08:20:00,
2013-02-13 03:25:00,45.2,43.0,29.83,SSE,155,0.0,18.0,92,0.00,,---,0.07,VWS V13.01,2013-02-13 08:25:00,
2013-02-13 03:30:00,45.1,42.9,29.83,SSE,156,0.0,18.0,92,0.00,,---,0.07,VWS V13.01,2013-02-13 08:30:00,
2013-02-13 03:35:00,45.0,42.8,29.82,SSE,156,0.0,18.0,92,0.00,,---,0.07,VWS V13.01,2013-02-13 08:35:00,
2013-02-13 03:40:00,44.9,42.7,29.82,SSE,155,0.0,18.0,92,0.00,,---,0.07,VWS V13.01,2013-02-13 08:40:00,
2013-02-13 03:45:00,44.9,43.0,29.82,SSE,156,0.0,18.0,93,0.00,,---,0.07,VWS V13.01,2013-02-13 08:45:00,
2013-02-13 03:50:00,44.9,43.0,29.82,SSE,156,0.0,18.0,93,0.00,,---,0.08,VWS V13.01,2013-02-13 08:50:00,
2013-02-13 03:55:00,44.9,43.0,29.82,SSE,157,0.0,18.0,93,0.00,,---,0.08,VWS V13.01,2013-02-13 08:55:00,
2013-02-13 04:00:00,44.8,42.9,29.82,SSE,155,0.0,18.0,93,0.00,,---,0.08,VWS V13.01,2013-02-13 09:00:00,
2013-02-13 04:05:00,44.8,42.9,29.80,SSE,156,0.0,18.0,93,0.00,,---,0.08,VWS V13.01,2013-02-13 09:05:00,
2013-02-13 04:10:00,44.8,42.9,29.80,SSE,156,0.0,18.0,93,0.00,,---,0.08,VWS V13.01,2013-02-13 09:10:00,
2013-02-13 04:15:00,44.7,42.8,29.80,SSE,155,0.0,18.0,93,0.00,,---,0.09,VWS V13.01,2013-02-13 09:15:00,
2013-02-13 04:20:00,44.7,42.8,29.79,SSE,155,0.0,18.0,93,0.00,,---,0.09,VWS V13.01,2013-02-13 09:20:00,
2013-02-13 04:25:00,44.7,42.8,29.79,SSE,155,0.0,18.0,93,0.00,,---,0.09,VWS V13.01,2013-02-13 09:25:00,
2013-02-13 04:30:00,44.6,43.0,29.79,SSE,155,0.0,18.0,94,0.00,,---,0.09,VWS V13.01,2013-02-13 09:30:00,
2013-02-13 04:35:00,44.6,43.0,29.79,SSE,155,0.0,18.0,94,0.00,,---,0.09,VWS V13.01,2013-02-13 09:35:00,
2013-02-13 04:40:00,44.6,43.0,29.79,SSE,155,0.0,18.0,94,0.00,,---,0.09,VWS V13.01,2013-02-13 09:40:00,
2013-02-13 04:45:00,44.6,43.0,29.79,SSE,156,0.0,18.0,94,0.00,,---,0.10,VWS V13.01,2013-02-13 09:45:00,
2013-02-13 04:50:00,44.7,43.1,29.79,SSE,155,0.0,18.0,94,0.00,,---,0.10,VWS V13.01,2013-02-13 09:50:00,
2013-02-13 04:55:00,44.7,43.1,29.79,SSE,156,0.0,18.0,94,0.00,,---,0.11,VWS V13.01,2013-02-13 09:55:00,
2013-02-13 05:00:00,44.7,43.1,29.79,SSE,156,0.0,18.0,94,0.00,,---,0.12,VWS V13.01,2013-02-13 10:00:00,
2013-02-13 05:05:00,44.7,43.1,29.80,SSE,156,0.0,18.0,94,0.00,,---,0.12,VWS V13.01,2013-02-13 10:05:00,
2013-02-13 05:10:00,44.5,42.6,29.80,SSE,155,0.0,18.0,93,0.00,,---,0.13,VWS V13.01,2013-02-13 10:10:00,
2013-02-13 05:15:00,44.3,42.4,29.80,SSE,156,0.0,18.0,93,0.00,,---,0.13,VWS V13.01,2013-02-13 10:15:00,
2013-02-13 05:20:00,44.2,42.0,29.80,SSW,205,0.0,18.0,92,0.00,,---,0.14,VWS V13.01,2013-02-13 10:20:00,
2013-02-13 05:25:00,44.1,41.9,29.80,WSW,250,0.0,18.0,92,0.00,,---,0.15,VWS V13.01,2013-02-13 10:25:00,
2013-02-13 05:30:00,43.8,41.3,29.80,West,278,0.0,18.0,91,0.00,,---,0.16,VWS V13.01,2013-02-13 10:30:00,
2013-02-13 05:35:00,43.7,41.5,29.80,West,278,0.0,18.0,92,0.00,,---,0.17,VWS V13.01,2013-02-13 10:35:00,
2013-02-13 05:40:00,43.5,41.3,29.80,West,267,0.0,18.0,92,0.00,,---,0.18,VWS V13.01,2013-02-13 10:40:00,
2013-02-13 05:45:00,43.4,41.2,29.80,WSW,257,0.0,18.0,92,0.00,,---,0.18,VWS V13.01,2013-02-13 10:45:00,
2013-02-13 05:50:00,43.4,41.2,29.80,WSW,257,0.0,18.0,92,0.00,,---,0.19,VWS V13.01,2013-02-13 10:50:00,
2013-02-13 05:55:00,43.4,41.5,29.80,WSW,257,0.0,18.0,93,0.00,,---,0.21,VWS V13.01,2013-02-13 10:55:00,
2013-02-13 06:00:00,43.3,41.4,29.80,WSW,257,0.0,18.0,93,0.00,,---,0.22,VWS V13.01,2013-02-13 11:00:00,
2013-02-13 06:05:00,43.2,41.3,29.81,WSW,257,0.0,18.0,93,0.00,,---,0.23,VWS V13.01,2013-02-13 11:05:00,
2013-02-13 06:10:00,43.1,41.2,29.81,WSW,257,0.0,18.0,93,0.00,,---,0.24,VWS V13.01,2013-02-13 11:10:00,
2013-02-13 06:15:00,43.1,41.2,29.81,WSW,257,0.0,18.0,93,0.00,,---,0.25,VWS V13.01,2013-02-13 11:15:00,
2013-02-13 06:20:00,43.0,41.1,29.80,WSW,257,0.0,18.0,93,0.00,,---,0.25,VWS V13.01,2013-02-13 11:20:00,
2013-02-13 06:25:00,43.0,41.4,29.80,WSW,257,0.0,18.0,94,0.00,,---,0.25,VWS V13.01,2013-02-13 11:25:00,
2013-02-13 06:30:00,42.9,41.3,29.80,East,94,0.0,18.0,94,0.00,,---,0.27,VWS V13.01,2013-02-13 11:30:00,
2013-02-13 06:35:00,42.9,41.3,29.81,East,94,0.0,18.0,94,0.00,,---,0.28,VWS V13.01,2013-02-13 11:35:00,
2013-02-13 06:40:00,42.9,41.3,29.81,East,94,0.0,18.0,94,0.00,,---,0.28,VWS V13.01,2013-02-13 11:40:00,
2013-02-13 06:45:00,42.9,41.3,29.81,East,94,0.0,18.0,94,0.00,,---,0.29,VWS V13.01,2013-02-13 11:45:00,
2013-02-13 06:50:00,42.9,41.3,29.81,East,94,0.0,18.0,94,0.00,,---,0.30,VWS V13.01,2013-02-13 11:50:00,
2013-02-13 06:55:00,42.9,41.3,29.81,East,95,0.0,18.0,94,0.00,,---,0.31,VWS V13.01,2013-02-13 11:55:00,
2013-02-13 07:00:00,42.9,41.3,29.81,East,94,0.0,18.0,94,0.00,,---,0.31,VWS V13.01,2013-02-13 12:00:00,
2013-02-13 07:05:00,42.9,41.3,29.80,East,94,0.0,18.0,94,0.00,,---,0.31,VWS V13.01,2013-02-13 12:05:00,
2013-02-13 07:10:00,42.9,41.3,29.80,East,94,0.0,18.0,94,0.00,,---,0.32,VWS V13.01,2013-02-13 12:10:00,
2013-02-13 07:15:00,42.9,41.3,29.80,East,94,0.0,18.0,94,0.00,,---,0.32,VWS V13.01,2013-02-13 12:15:00,
2013-02-13 07:20:00,42.9,41.3,29.81,East,94,0.0,18.0,94,0.00,,---,0.32,VWS V13.01,2013-02-13 12:20:00,
2013-02-13 07:25:00,42.9,41.3,29.81,East,94,0.0,18.0,94,0.00,,---,0.33,VWS V13.01,2013-02-13 12:25:00,
2013-02-13 07:30:00,42.8,41.2,29.81,East,94,0.0,18.0,94,0.00,,---,0.33,VWS V13.01,2013-02-13 12:30:00,
2013-02-13 07:35:00,42.9,41.3,29.80,East,95,0.0,18.0,94,0.00,,---,0.33,VWS V13.01,2013-02-13 12:35:00,
2013-02-13 07:40:00,42.9,41.3,29.80,East,94,0.0,18.0,94,0.00,,---,0.33,VWS V13.01,2013-02-13 12:40:00,
2013-02-13 07:45:00,42.9,41.3,29.80,East,94,0.0,18.0,94,0.00,,---,0.33,VWS V13.01,2013-02-13 12:45:00,
2013-02-13 07:50:00,42.9,41.6,29.80,East,94,0.0,18.0,95,0.00,,---,0.34,VWS V13.01,2013-02-13 12:50:00,
2013-02-13 07:55:00,43.0,41.7,29.80,East,94,0.0,18.0,95,0.00,,---,0.34,VWS V13.01,2013-02-13 12:55:00,
2013-02-13 08:00:00,42.9,41.6,29.80,East,94,0.0,18.0,95,0.00,,---,0.34,VWS V13.01,2013-02-13 13:00:00,
2013-02-13 08:05:00,43.0,41.7,29.79,East,94,0.0,18.0,95,0.00,,---,0.34,VWS V13.01,2013-02-13 13:05:00,
2013-02-13 08:10:00,43.1,41.8,29.79,East,94,0.0,18.0,95,0.00,,---,0.34,VWS V13.01,2013-02-13 13:10:00,
2013-02-13 08:15:00,43.0,41.7,29.79,East,94,0.0,18.0,95,0.00,,---,0.34,VWS V13.01,2013-02-13 13:15:00,
2013-02-13 08:20:00,43.1,41.8,29.79,East,94,0.0,18.0,95,0.00,,---,0.34,VWS V13.01,2013-02-13 13:20:00,
2013-02-13 08:25:00,43.1,41.8,29.79,East,94,0.0,18.0,95,0.00,,---,0.35,VWS V13.01,2013-02-13 13:25:00,
2013-02-13 08:30:00,43.0,41.4,29.79,East,94,0.0,18.0,94,0.00,,---,0.35,VWS V13.01,2013-02-13 13:30:00,
2013-02-13 08:35:00,43.1,41.5,29.81,East,94,0.0,18.0,94,0.00,,---,0.35,VWS V13.01,2013-02-13 13:35:00,
2013-02-13 08:40:00,43.1,41.8,29.81,East,94,0.0,18.0,95,0.00,,---,0.35,VWS V13.01,2013-02-13 13:40:00,
2013-02-13 08:45:00,43.2,41.9,29.81,East,94,0.0,18.0,95,0.00,,---,0.35,VWS V13.01,2013-02-13 13:45:00,
2013-02-13 08:50:00,43.2,41.9,29.81,East,94,0.0,18.0,95,0.00,,---,0.36,VWS V13.01,2013-02-13 13:50:00,
2013-02-13 08:55:00,43.3,42.0,29.81,East,94,0.0,18.0,95,0.00,,---,0.36,VWS V13.01,2013-02-13 13:55:00,
2013-02-13 09:00:00,43.2,41.6,29.81,East,94,0.0,18.0,94,0.00,,---,0.36,VWS V13.01,2013-02-13 14:00:00,
2013-02-13 09:05:00,43.3,41.7,29.82,East,94,0.0,18.0,94,0.00,,---,0.36,VWS V13.01,2013-02-13 14:05:00,
2013-02-13 09:10:00,43.2,41.6,29.82,East,94,0.0,18.0,94,0.00,,---,0.36,VWS V13.01,2013-02-13 14:10:00,
2013-02-13 09:15:00,43.3,42.0,29.82,East,94,0.0,18.0,95,0.00,,---,0.37,VWS V13.01,2013-02-13 14:15:00,
2013-02-13 09:20:00,43.3,41.7,29.81,East,94,0.0,18.0,94,0.00,,---,0.37,VWS V13.01,2013-02-13 14:20:00,
2013-02-13 09:25:00,43.4,42.1,29.81,East,94,0.0,18.0,95,0.00,,---,0.37,VWS V13.01,2013-02-13 14:25:00,
2013-02-13 09:30:00,43.6,42.3,29.81,East,94,0.0,18.0,95,0.00,,---,0.37,VWS V13.01,2013-02-13 14:30:00,
2013-02-13 09:35:00,43.6,42.3,29.78,East,96,0.0,18.0,95,0.00,,---,0.37,VWS V13.01,2013-02-13 14:35:00,
2013-02-13 09:40:00,43.6,42.0,29.78,East,96,0.0,18.0,94,0.00,,---,0.37,VWS V13.01,2013-02-13 14:40:00,
2013-02-13 09:45:00,43.7,42.4,29.78,East,96,0.0,18.0,95,0.00,,---,0.37,VWS V13.01,2013-02-13 14:45:00,
2013-02-13 09:50:00,43.7,42.4,29.76,ESE,114,0.0,18.0,95,0.00,,---,0.37,VWS V13.01,2013-02-13 14:50:00,
2013-02-13 09:55:00,43.9,42.6,29.76,ESE,114,0.0,18.0,95,0.00,,---,0.37,VWS V13.01,2013-02-13 14:55:00,
2013-02-13 10:00:00,43.8,42.2,29.76,ESE,115,0.0,18.0,94,0.00,,---,0.37,VWS V13.01,2013-02-13 15:00:00,
2013-02-13 10:05:00,43.9,42.6,29.76,ESE,115,0.0,18.0,95,0.00,,---,0.37,VWS V13.01,2013-02-13 15:05:00,
2013-02-13 10:10:00,43.9,42.6,29.76,ESE,114,0.0,18.0,95,0.00,,---,0.37,VWS V13.01,2013-02-13 15:10:00,
2013-02-13 10:14:00,43.9,42.6,29.76,ESE,114,0.0,18.0,95,0.00,,---,0.37,VWS V13.01,2013-02-13 15:14:00,
2013-02-13 10:19:00,43.9,42.3,29.75,ESE,114,0.0,18.0,94,0.00,,---,0.37,VWS V13.01,2013-02-13 15:19:00,
2013-02-13 10:24:00,44.0,42.4,29.75,ESE,114,0.0,18.0,94,0.00,,---,0.37,VWS V13.01,2013-02-13 15:24:00,
2013-02-13 10:30:00,44.0,42.7,29.75,ESE,114,0.0,18.0,95,0.00,,---,0.37,VWS V13.01,2013-02-13 15:30:00,
2013-02-13 10:35:00,44.1,42.8,29.76,ESE,114,0.0,18.0,95,0.00,,---,0.37,VWS V13.01,2013-02-13 15:35:00,
2013-02-13 10:39:00,44.2,42.9,29.76,ESE,114,0.0,18.0,95,0.00,,---,0.37,VWS V13.01,2013-02-13 15:39:00,
2013-02-13 10:45:00,44.2,42.6,29.76,ESE,114,1.0,18.0,94,0.00,,---,0.37,VWS V13.01,2013-02-13 15:45:00,
2013-02-13 10:49:00,44.1,42.5,29.75,ESE,113,0.0,18.0,94,0.00,,---,0.38,VWS V13.01,2013-02-13 15:49:00,
2013-02-13 10:54:00,44.1,42.5,29.75,ESE,110,0.0,18.0,94,0.00,,---,0.38,VWS V13.01,2013-02-13 15:54:00,
2013-02-13 10:59:00,44.0,42.4,29.75,ESE,117,0.0,18.0,94,0.00,,---,0.38,VWS V13.01,2013-02-13 15:59:00,
2013-02-13 11:04:00,44.1,42.5,29.75,ESE,117,0.0,18.0,94,0.00,,---,0.38,VWS V13.01,2013-02-13 16:04:00,
2013-02-13 11:09:00,44.1,42.5,29.75,ESE,117,0.0,18.0,94,0.00,,---,0.38,VWS V13.01,2013-02-13 16:09:00,
2013-02-13 11:14:00,44.2,42.6,29.75,ESE,117,0.0,18.0,94,0.00,,---,0.38,VWS V13.01,2013-02-13 16:14:00,
2013-02-13 11:19:00,44.4,43.1,29.74,WNW,285,0.0,18.0,95,0.00,,---,0.38,VWS V13.01,2013-02-13 16:19:00,
2013-02-13 11:24:00,44.5,43.2,29.74,WNW,285,0.0,18.0,95,0.00,,---,0.38,VWS V13.01,2013-02-13 16:24:00,
2013-02-13 11:29:00,44.6,43.0,29.74,WNW,285,0.0,18.0,94,0.00,,---,0.38,VWS V13.01,2013-02-13 16:29:00,
2013-02-13 11:34:00,44.7,43.4,29.72,ESE,117,0.0,18.0,95,0.00,,---,0.38,VWS V13.01,2013-02-13 16:34:00,
2013-02-13 11:39:00,44.7,43.1,29.72,ESE,117,0.0,18.0,94,0.00,,---,0.38,VWS V13.01,2013-02-13 16:39:00,
2013-02-13 11:44:00,44.8,43.5,29.72,ESE,117,0.0,18.0,95,0.00,,---,0.38,VWS V13.01,2013-02-13 16:44:00,
2013-02-13 11:49:00,45.0,43.7,29.71,ESE,117,0.0,18.0,95,0.00,,---,0.38,VWS V13.01,2013-02-13 16:49:00,
2013-02-13 11:54:00,45.1,43.5,29.71,ESE,117,0.0,18.0,94,0.00,,---,0.38,VWS V13.01,2013-02-13 16:54:00,
2013-02-13 11:59:00,45.1,43.5,29.71,ESE,117,0.0,18.0,94,0.00,,---,0.38,VWS V13.01,2013-02-13 16:59:00,
2013-02-13 12:04:00,45.1,43.5,29.70,ESE,117,0.0,18.0,94,0.00,,---,0.38,VWS V13.01,2013-02-13 17:04:00,
2013-02-13 12:09:00,45.2,43.6,29.70,ESE,117,0.0,18.0,94,0.00,,---,0.38,VWS V13.01,2013-02-13 17:09:00,
2013-02-13 12:14:00,45.4,44.0,29.70,ESE,117,0.0,18.0,95,0.00,,---,0.38,VWS V13.01,2013-02-13 17:14:00,
2013-02-13 12:19:00,45.4,43.8,29.68,ESE,117,0.0,18.0,94,0.00,,---,0.38,VWS V13.01,2013-02-13 17:19:00,
2013-02-13 12:24:00,45.5,43.6,29.68,West,278,0.0,18.0,93,0.00,,---,0.38,VWS V13.01,2013-02-13 17:24:00,
2013-02-13 12:29:00,45.4,43.5,29.68,West,277,0.0,18.0,93,0.00,,---,0.38,VWS V13.01,2013-02-13 17:29:00,
2013-02-13 12:34:00,45.4,43.5,29.67,ESE,118,0.0,18.0,93,0.00,,---,0.38,VWS V13.01,2013-02-13 17:34:00,
2013-02-13 12:39:00,45.4,43.5,29.67,ESE,117,0.0,18.0,93,0.00,,---,0.38,VWS V13.01,2013-02-13 17:39:00,
2013-02-13 12:44:00,45.4,43.5,29.67,ESE,117,0.0,18.0,93,0.00,,---,0.38,VWS V13.01,2013-02-13 17:44:00,
2013-02-13 12:49:00,45.4,43.5,29.67,ESE,117,0.0,18.0,93,0.00,,---,0.38,VWS V13.01,2013-02-13 17:49:00,
2013-02-13 12:54:00,45.3,43.4,29.67,ESE,117,0.0,18.0,93,0.00,,---,0.38,VWS V13.01,2013-02-13 17:54:00,
2013-02-13 12:59:00,45.4,43.8,29.67,ESE,117,0.0,18.0,94,0.00,,---,0.38,VWS V13.01,2013-02-13 17:59:00,
2013-02-13 13:04:00,45.4,43.8,29.65,ESE,117,0.0,18.0,94,0.00,,---,0.38,VWS V13.01,2013-02-13 18:04:00,
2013-02-13 13:09:00,45.5,43.9,29.65,ESE,117,0.0,18.0,94,0.00,,---,0.38,VWS V13.01,2013-02-13 18:09:00,
2013-02-13 13:14:00,45.4,43.8,29.65,ESE,117,0.0,18.0,94,0.00,,---,0.38,VWS V13.01,2013-02-13 18:14:00,
2013-02-13 13:19:00,45.3,43.7,29.63,ESE,117,0.0,18.0,94,0.00,,---,0.38,VWS V13.01,2013-02-13 18:19:00,
2013-02-13 13:24:00,45.5,43.9,29.63,ESE,117,0.0,18.0,94,0.00,,---,0.38,VWS V13.01,2013-02-13 18:24:00,
2013-02-13 13:29:00,45.6,44.2,29.63,ESE,117,0.0,18.0,95,0.00,,---,0.38,VWS V13.01,2013-02-13 18:29:00,
2013-02-13 13:34:00,45.6,44.0,29.65,ESE,117,0.0,18.0,94,0.00,,---,0.38,VWS V13.01,2013-02-13 18:34:00,
2013-02-13 13:39:00,45.7,44.1,29.65,ESE,117,0.0,18.0,94,0.00,,---,0.38,VWS V13.01,2013-02-13 18:39:00,
2013-02-13 13:44:00,45.8,44.2,29.65,ESE,117,0.0,18.0,94,0.00,,---,0.38,VWS V13.01,2013-02-13 18:44:00,
2013-02-13 13:49:00,45.9,44.3,29.62,ESE,117,0.0,18.0,94,0.00,,---,0.38,VWS V13.01,2013-02-13 18:49:00,
2013-02-13 13:54:00,45.9,44.3,29.62,ESE,117,0.0,18.0,94,0.00,,---,0.38,VWS V13.01,2013-02-13 18:54:00,
2013-02-13 13:59:00,46.0,44.4,29.62,ESE,117,0.0,18.0,94,0.00,,---,0.38,VWS V13.01,2013-02-13 18:59:00,
2013-02-13 14:04:00,46.0,44.4,29.62,ESE,117,0.0,18.0,94,0.00,,---,0.38,VWS V13.01,2013-02-13 19:04:00,
2013-02-13 14:09:00,45.9,44.3,29.62,ESE,117,0.0,18.0,94,0.00,,---,0.38,VWS V13.01,2013-02-13 19:09:00,
2013-02-13 14:14:00,45.9,44.3,29.62,West,281,0.0,18.0,94,0.00,,---,0.38,VWS V13.01,2013-02-13 19:14:00,
2013-02-13 14:19:00,45.7,44.1,29.62,West,280,0.0,18.0,94,0.00,,---,0.38,VWS V13.01,2013-02-13 19:19:00,
2013-02-13 14:24:00,45.7,44.1,29.62,West,280,0.0,18.0,94,0.00,,---,0.38,VWS V13.01,2013-02-13 19:24:00,
2013-02-13 14:29:00,45.9,44.3,29.62,West,280,0.0,18.0,94,0.00,,---,0.38,VWS V13.01,2013-02-13 19:29:00,
2013-02-13 14:34:00,46.0,44.4,29.62,West,280,0.0,18.0,94,0.00,,---,0.39,VWS V13.01,2013-02-13 19:34:00,
2013-02-13 14:39:00,46.0,44.4,29.62,West,280,0.0,18.0,94,0.00,,---,0.39,VWS V13.01,2013-02-13 19:39:00,
2013-02-13 14:44:00,46.0,44.4,29.62,West,280,0.0,18.0,94,0.00,,---,0.39,VWS V13.01,2013-02-13 19:44:00,
2013-02-13 14:49:00,45.9,44.3,29.61,West,280,0.0,18.0,94,0.00,,---,0.39,VWS V13.01,2013-02-13 19:49:00,
2013-02-13 14:54:00,46.0,44.4,29.61,West,280,0.0,18.0,94,0.00,,---,0.39,VWS V13.01,2013-02-13 19:54:00,
2013-02-13 14:59:00,46.0,44.4,29.61,West,280,0.0,18.0,94,0.00,,---,0.39,VWS V13.01,2013-02-13 19:59:00,
2013-02-13 15:04:00,46.1,44.8,29.60,West,279,0.0,18.0,95,0.00,,---,0.39,VWS V13.01,2013-02-13 20:04:00,
2013-02-13 15:09:00,46.3,45.0,29.60,West,280,0.0,18.0,95,0.00,,---,0.39,VWS V13.01,2013-02-13 20:09:00,
2013-02-13 15:14:00,46.3,44.7,29.60,West,280,0.0,18.0,94,0.00,,---,0.39,VWS V13.01,2013-02-13 20:14:00,
2013-02-13 15:19:00,46.3,44.7,29.62,West,274,0.0,18.0,94,0.00,,---,0.39,VWS V13.01,2013-02-13 20:19:00,
2013-02-13 15:24:00,46.2,44.6,29.62,West,274,0.0,18.0,94,0.00,,---,0.39,VWS V13.01,2013-02-13 20:24:00,
2013-02-13 15:29:00,46.2,44.6,29.62,WSW,256,0.0,18.0,94,0.00,,---,0.39,VWS V13.01,2013-02-13 20:29:00,
2013-02-13 15:34:00,46.2,44.6,29.62,WSW,256,0.0,18.0,94,0.00,,---,0.39,VWS V13.01,2013-02-13 20:34:00,
2013-02-13 15:39:00,46.2,44.6,29.62,WSW,256,0.0,18.0,94,0.00,,---,0.39,VWS V13.01,2013-02-13 20:39:00,
2013-02-13 15:44:00,46.2,44.6,29.62,WSW,256,0.0,18.0,94,0.00,,---,0.39,VWS V13.01,2013-02-13 20:44:00,
2013-02-13 15:49:00,46.2,44.8,29.61,WSW,256,0.0,18.0,95,0.00,,---,0.39,VWS V13.01,2013-02-13 20:49:00,
2013-02-13 15:54:00,46.3,45.0,29.61,WSW,256,0.0,18.0,95,0.00,,---,0.39,VWS V13.01,2013-02-13 20:54:00,
2013-02-13 15:59:00,46.2,44.6,29.61,West,277,0.0,18.0,94,0.00,,---,0.39,VWS V13.01,2013-02-13 20:59:00,
2013-02-13 16:04:00,46.2,44.6,29.61,West,276,0.0,18.0,94,0.00,,---,0.39,VWS V13.01,2013-02-13 21:04:00,
2013-02-13 16:09:00,46.2,44.8,29.61,West,276,0.0,18.0,95,0.00,,---,0.39,VWS V13.01,2013-02-13 21:09:00,
2013-02-13 16:14:00,46.2,44.8,29.61,WSW,258,0.0,18.0,95,0.00,,---,0.39,VWS V13.01,2013-02-13 21:14:00,
2013-02-13 16:19:00,46.2,44.8,29.60,West,259,0.0,18.0,95,0.00,,---,0.39,VWS V13.01,2013-02-13 21:19:00,
2013-02-13 16:24:00,46.2,44.8,29.60,West,259,0.0,18.0,95,0.00,,---,0.39,VWS V13.01,2013-02-13 21:24:00,
2013-02-13 16:29:00,46.2,44.6,29.60,West,270,0.0,18.0,94,0.00,,---,0.39,VWS V13.01,2013-02-13 21:29:00,
2013-02-13 16:34:00,46.2,44.8,29.62,WNW,294,0.0,18.0,95,0.00,,---,0.39,VWS V13.01,2013-02-13 21:34:00,
2013-02-13 16:39:00,46.2,44.8,29.62,SW,225,0.0,18.0,95,0.00,,---,0.39,VWS V13.01,2013-02-13 21:39:00,
2013-02-13 16:44:00,46.1,44.8,29.62,WSW,257,0.0,18.0,95,0.00,,---,0.39,VWS V13.01,2013-02-13 21:44:00,
2013-02-13 16:49:00,46.1,44.8,29.62,ESE,110,0.0,18.0,95,0.00,,---,0.39,VWS V13.01,2013-02-13 21:49:00,
2013-02-13 16:54:00,46.2,44.8,29.62,ESE,113,0.0,18.0,95,0.00,,---,0.39,VWS V13.01,2013-02-13 21:54:00,
2013-02-13 16:59:00,46.2,44.8,29.62,ESE,117,0.0,18.0,95,0.00,,---,0.39,VWS V13.01,2013-02-13 21:59:00,
2013-02-13 17:04:00,46.1,44.8,29.62,ESE,117,0.0,18.0,95,0.00,,---,0.39,VWS V13.01,2013-02-13 22:04:00,
2013-02-13 17:09:00,46.1,44.8,29.62,ESE,118,0.0,18.0,95,0.00,,---,0.39,VWS V13.01,2013-02-13 22:09:00,
2013-02-13 17:14:00,46.1,44.8,29.62,SSE,158,0.0,18.0,95,0.00,,---,0.39,VWS V13.01,2013-02-13 22:14:00,
2013-02-13 17:19:00,46.1,44.8,29.62,WSW,242,0.0,18.0,95,0.00,,---,0.39,VWS V13.01,2013-02-13 22:19:00,
2013-02-13 17:24:00,46.1,44.8,29.62,ESE,118,0.0,18.0,95,0.00,,---,0.39,VWS V13.01,2013-02-13 22:24:00,
2013-02-13 17:29:00,46.1,44.8,29.62,WNW,288,0.0,18.0,95,0.00,,---,0.39,VWS V13.01,2013-02-13 22:29:00,
2013-02-13 17:34:00,46.1,44.8,29.63,WNW,285,0.0,18.0,95,0.00,,---,0.39,VWS V13.01,2013-02-13 22:34:00,
2013-02-13 17:39:00,46.1,44.8,29.63,WNW,285,0.0,18.0,95,0.00,,---,0.39,VWS V13.01,2013-02-13 22:39:00,
2013-02-13 17:44:00,46.1,44.8,29.63,WSW,240,0.0,18.0,95,0.00,,---,0.39,VWS V13.01,2013-02-13 22:44:00,
2013-02-13 17:49:00,46.1,44.8,29.63,East,97,0.0,18.0,95,0.00,,---,0.39,VWS V13.01,2013-02-13 22:49:00,
2013-02-13 17:54:00,46.1,44.8,29.63,ESE,107,0.0,18.0,95,0.00,,---,0.39,VWS V13.01,2013-02-13 22:54:00,
2013-02-13 17:59:00,46.1,44.8,29.63,ESE,108,0.0,18.0,95,0.00,,---,0.39,VWS V13.01,2013-02-13 22:59:00,
2013-02-13 18:04:00,46.1,44.8,29.64,ESE,108,0.0,18.0,95,0.00,,---,0.39,VWS V13.01,2013-02-13 23:04:00,
2013-02-13 18:09:00,46.1,44.8,29.64,South,184,0.0,18.0,95,0.00,,---,0.39,VWS V13.01,2013-02-13 23:09:00,
2013-02-13 18:14:00,46.1,44.8,29.64,SSE,165,0.0,18.0,95,0.00,,---,0.39,VWS V13.01,2013-02-13 23:14:00,
2013-02-13 18:19:00,46.1,44.8,29.64,WSW,254,0.0,18.0,95,0.00,,---,0.39,VWS V13.01,2013-02-13 23:19:00,
2013-02-13 18:24:00,46.1,44.8,29.64,WSW,249,0.0,18.0,95,0.00,,---,0.39,VWS V13.01,2013-02-13 23:24:00,
2013-02-13 18:29:00,46.1,44.8,29.64,SW,230,0.0,18.0,95,0.00,,---,0.39,VWS V13.01,2013-02-13 23:29:00,
2013-02-13 18:34:00,46.1,44.8,29.66,WNW,285,0.0,18.0,95,0.00,,---,0.39,VWS V13.01,2013-02-13 23:34:00,
2013-02-13 18:39:00,46.1,44.8,29.66,SE,132,0.0,18.0,95,0.00,,---,0.39,VWS V13.01,2013-02-13 23:39:00,
2013-02-13 18:44:00,46.1,44.8,29.66,SE,127,0.0,18.0,95,0.00,,---,0.39,VWS V13.01,2013-02-13 23:44:00,
2013-02-13 18:49:00,46.1,44.5,29.67,West,267,0.0,18.0,94,0.00,,---,0.39,VWS V13.01,2013-02-13 23:49:00,
2013-02-13 18:54:00,46.1,44.8,29.67,West,264,0.0,18.0,95,0.00,,---,0.39,VWS V13.01,2013-02-13 23:54:00,
2013-02-13 18:59:00,46.1,44.8,29.67,ESE,114,0.0,18.0,95,0.00,,---,0.39,VWS V13.01,2013-02-13 23:59:00,
2013-02-13 19:04:00,46.1,44.5,29.67,SW,231,0.0,18.0,94,0.00,,---,0.39,VWS V13.01,2013-02-14 00:04:00,
2013-02-13 19:09:00,46.1,44.5,29.67,West,260,0.0,18.0,94,0.00,,---,0.39,VWS V13.01,2013-02-14 00:09:00,
2013-02-13 19:14:00,46.1,44.5,29.67,WNW,290,0.0,18.0,94,0.00,,---,0.39,VWS V13.01,2013-02-14 00:14:00,
2013-02-13 19:19:00,46.1,44.5,29.67,WSW,249,0.0,18.0,94,0.00,,---,0.39,VWS V13.01,2013-02-14 00:19:00,
2013-02-13 19:24:00,46.1,44.5,29.67,WNW,291,0.0,18.0,94,0.00,,---,0.39,VWS V13.01,2013-02-14 00:24:00,
2013-02-13 19:29:00,46.1,44.5,29.67,ESE,122,0.0,18.0,94,0.00,,---,0.39,VWS V13.01,2013-02-14 00:29:00,
2013-02-13 19:34:00,46.1,44.5,29.67,SW,231,0.0,18.0,94,0.00,,---,0.39,VWS V13.01,2013-02-14 00:34:00,
2013-02-13 19:39:00,46.2,44.6,29.67,SW,231,0.0,18.0,94,0.00,,---,0.39,VWS V13.01,2013-02-14 00:39:00,
2013-02-13 19:44:00,46.2,44.6,29.67,SW,228,0.0,18.0,94,0.00,,---,0.39,VWS V13.01,2013-02-14 00:44:00,
2013-02-13 19:49:00,46.2,44.6,29.68,West,260,0.0,18.0,94,0.00,,---,0.39,VWS V13.01,2013-02-14 00:49:00,
2013-02-13 19:54:00,46.2,44.6,29.68,ESE,121,0.0,18.0,94,0.00,,---,0.39,VWS V13.01,2013-02-14 00:54:00,
2013-02-13 19:59:00,46.2,44.6,29.68,WSW,254,0.0,18.0,94,0.00,,---,0.39,VWS V13.01,2013-02-14 00:59:00,
2013-02-13 20:04:00,46.1,44.5,29.68,ESE,113,1.0,18.0,94,0.00,,---,0.39,VWS V13.01,2013-02-14 01:04:00,
2013-02-13 20:09:00,46.1,44.5,29.68,WSW,249,0.0,18.0,94,0.00,,---,0.39,VWS V13.01,2013-02-14 01:09:00,
2013-02-13 20:14:00,46.1,44.5,29.68,South,191,0.0,18.0,94,0.00,,---,0.39,VWS V13.01,2013-02-14 01:14:00,
2013-02-13 20:19:00,46.0,44.4,29.69,SSW,198,0.0,18.0,94,0.00,,---,0.39,VWS V13.01,2013-02-14 01:19:00,
2013-02-13 20:24:00,45.9,44.3,29.69,SE,127,0.0,18.0,94,0.00,,---,0.39,VWS V13.01,2013-02-14 01:24:00,
2013-02-13 20:29:00,45.8,44.2,29.69,WSW,256,0.0,18.0,94,0.00,,---,0.39,VWS V13.01,2013-02-14 01:29:00,
2013-02-13 20:34:00,45.8,44.2,29.69,SSW,200,0.0,18.0,94,0.00,,---,0.39,VWS V13.01,2013-02-14 01:34:00,
2013-02-13 20:39:00,45.8,44.2,29.69,SSE,160,2.0,18.0,94,0.00,,---,0.39,VWS V13.01,2013-02-14 01:39:00,
2013-02-13 20:44:00,45.8,44.2,29.69,SE,134,0.0,18.0,94,0.00,,---,0.39,VWS V13.01,2013-02-14 01:44:00,
2013-02-13 20:49:00,45.9,44.3,29.70,ESE,103,0.0,18.0,94,0.00,,---,0.39,VWS V13.01,2013-02-14 01:49:00,
2013-02-13 20:54:00,45.9,44.3,29.70,SSW,198,0.0,18.0,94,0.00,,---,0.39,VWS V13.01,2013-02-14 01:54:00,
2013-02-13 20:59:00,46.0,44.4,29.70,WNW,284,0.0,18.0,94,0.00,,---,0.39,VWS V13.01,2013-02-14 01:59:00,
2013-02-13 21:04:00,46.0,44.4,29.71,NNE,30,0.0,18.0,94,0.00,,---,0.39,VWS V13.01,2013-02-14 02:04:00,
2013-02-13 21:09:00,46.0,44.1,29.71,SE,144,0.0,18.0,93,0.00,,---,0.39,VWS V13.01,2013-02-14 02:09:00,
2013-02-13 21:14:00,45.9,43.7,29.71,ENE,57,3.0,18.0,92,0.00,,---,0.39,VWS V13.01,2013-02-14 02:14:00,
2013-02-13 21:19:00,45.9,43.4,29.73,SSE,163,0.0,18.0,91,0.00,,---,0.39,VWS V13.01,2013-02-14 02:19:00,
2013-02-13 21:24:00,45.8,43.0,29.73,SW,231,0.0,18.0,90,0.00,,---,0.39,VWS V13.01,2013-02-14 02:24:00,
2013-02-13 21:29:00,45.7,42.7,29.73,SW,219,0.0,18.0,89,0.00,,---,0.39,VWS V13.01,2013-02-14 02:29:00,
2013-02-13 21:34:00,45.5,42.5,29.73,ESE,111,1.0,18.0,89,0.00,,---,0.39,VWS V13.01,2013-02-14 02:34:00,
2013-02-13 21:39:00,45.3,42.3,29.73,WSW,256,0.0,18.0,89,0.00,,---,0.39,VWS V13.01,2013-02-14 02:39:00,
2013-02-13 21:44:00,45.1,41.8,29.73,WSW,238,0.0,18.0,88,0.00,,---,0.39,VWS V13.01,2013-02-14 02:44:00,
2013-02-13 21:49:00,45.1,41.8,29.75,SW,228,0.0,18.0,88,0.00,,---,0.39,VWS V13.01,2013-02-14 02:49:00,
2013-02-13 21:54:00,44.9,41.6,29.75,SSW,212,0.0,18.0,88,0.00,,---,0.39,VWS V13.01,2013-02-14 02:54:00,
2013-02-13 21:59:00,44.7,41.4,29.75,WSW,248,0.0,18.0,88,0.00,,---,0.39,VWS V13.01,2013-02-14 02:59:00,
2013-02-13 22:04:00,44.5,40.6,29.75,SSW,200,1.0,18.0,86,0.00,,---,0.39,VWS V13.01,2013-02-14 03:04:00,
2013-02-13 22:09:00,44.2,40.0,29.75,ESE,114,0.0,18.0,85,0.00,,---,0.39,VWS V13.01,2013-02-14 03:09:00,
2013-02-13 22:14:00,43.9,39.4,29.75,SW,222,0.0,18.0,84,0.00,,---,0.39,VWS V13.01,2013-02-14 03:14:00,
2013-02-13 22:19:00,43.6,39.1,29.76,South,173,0.0,18.0,84,0.00,,---,0.39,VWS V13.01,2013-02-14 03:19:00,
2013-02-13 22:24:00,43.2,38.4,29.76,East,94,0.0,18.0,83,0.00,,---,0.39,VWS V13.01,2013-02-14 03:24:00,
2013-02-13 22:29:00,42.9,37.8,29.76,SW,226,0.0,18.0,82,0.00,,---,0.39,VWS V13.01,2013-02-14 03:29:00,
2013-02-13 22:34:00,42.6,37.2,29.77,SW,229,0.0,18.0,81,0.00,,---,0.39,VWS V13.01,2013-02-14 03:34:00,
2013-02-13 22:39:00,42.3,36.6,29.77,SE,141,0.0,18.0,80,0.00,,---,0.39,VWS V13.01,2013-02-14 03:39:00,
2013-02-13 22:44:00,42.1,36.4,29.77,SE,129,0.0,18.0,80,0.00,,---,0.39,VWS V13.01,2013-02-14 03:44:00,
2013-02-13 22:49:00,41.8,36.1,29.78,SW,228,0.0,18.0,80,0.00,,---,0.39,VWS V13.01,2013-02-14 03:49:00,
2013-02-13 22:54:00,41.6,35.6,29.78,ESE,117,0.0,18.0,79,0.00,,---,0.39,VWS V13.01,2013-02-14 03:54:00,
2013-02-13 22:59:00,41.5,35.8,29.78,SSE,152,0.0,18.0,80,0.00,,---,0.39,VWS V13.01,2013-02-14 03:59:00,
2013-02-13 23:04:00,41.2,35.5,29.78,WSW,248,0.0,18.0,80,0.00,,---,0.39,VWS V13.01,2013-02-14 04:04:00,
2013-02-13 23:09:00,40.9,35.2,29.78,SSW,203,0.0,18.0,80,0.00,,---,0.39,VWS V13.01,2013-02-14 04:09:00,
2013-02-13 23:14:00,40.8,35.4,29.78,East,98,0.0,18.0,81,0.00,,---,0.39,VWS V13.01,2013-02-14 04:14:00,
2013-02-13 23:19:00,40.7,35.0,29.80,West,274,0.0,18.0,80,0.00,,---,0.39,VWS V13.01,2013-02-14 04:19:00,
2013-02-13 23:24:00,40.6,34.6,29.80,SSE,150,1.0,18.0,79,0.00,,---,0.39,VWS V13.01,2013-02-14 04:24:00,
2013-02-13 23:29:00,40.5,34.8,29.80,SE,125,0.0,18.0,80,0.00,,---,0.39,VWS V13.01,2013-02-14 04:29:00,
2013-02-13 23:34:00,40.3,34.9,29.80,SE,125,0.0,18.0,81,0.00,,---,0.39,VWS V13.01,2013-02-14 04:34:00,
2013-02-13 23:39:00,40.0,34.7,29.80,South,179,0.0,18.0,81,0.00,,---,0.39,VWS V13.01,2013-02-14 04:39:00,
2013-02-13 23:44:00,39.7,34.7,29.80,South,179,0.0,18.0,82,0.00,,---,0.39,VWS V13.01,2013-02-14 04:44:00,
2013-02-13 23:49:00,39.3,34.6,29.81,South,179,0.0,18.0,83,0.00,,---,0.39,VWS V13.01,2013-02-14 04:49:00,
2013-02-13 23:54:00,38.9,34.5,29.81,South,179,0.0,18.0,84,0.00,,---,0.39,VWS V13.01,2013-02-14 04:54:00,
2013-02-13 23:59:00,38.5,34.4,29.81,South,177,0.0,18.0,85,0.00,,---,0.39,VWS V13.01,2013-02-14 04:59:00,